Regional Weather Roundup
Issued by NWS

Home | Current Version | Previous Version | Graphics & Text | Print | Product List | Glossary On
Versions: 1 2 3 4 5 6 7 8 9 10 11 12 13 14 15 16 17 18 19 20 21 22 23 24 25 26 27 28 29 30 31 32 33 34 35 36 37 38 39 40 41 42 43 44 45 46 47 48 49 50
000
ASUS43 KBIS 171810
RWRND

NORTH DAKOTA REGIONAL WEATHER ROUNDUP
NATIONAL WEATHER SERVICE BISMARCK ND
1200 PM CST SAT FEB 17 2018

NOTE: "FAIR" INDICATES FEW OR NO CLOUDS BELOW 12,000 FEET WITH NO
SIGNIFICANT WEATHER AND/OR OBSTRUCTIONS TO VISIBILITY.


NDZ001>003-009>011-017-171900-
NORTHWEST NORTH DAKOTA

CITY           SKY/WX    TMP DP  RH WIND       PRES   REMARKS
WILLISTON      SUNNY     16   7  67 W15G22    30.00S WCI   1
6HR MIN TEMP:   7; 6HR MAX TEMP:  16;

MINOT          MOSUNNY   21  11  65 W18       29.93S WCI   6
MINOT AFB      PTSUNNY   19  12  73 W21       29.92R WCI   3
$$

NDZ018>021-031>035-040>046-171900-
SOUTHWEST NORTH DAKOTA

CITY           SKY/WX    TMP DP  RH WIND       PRES   REMARKS
BISMARCK       PTSUNNY   24  12  60 W16       30.02R WCI  11
6HR MIN TEMP:  15; 6HR MAX TEMP:  24;

DICKINSON      SUNNY     17   8  67 W22       29.96S WCI   0
GARRISON         N/A     19  12  74 W16       29.96R WCI   4
6HR MIN TEMP:   8; 6HR MAX TEMP:  19;

HETTINGER ARPT SUNNY     16   9  74 NW17      30.00F WCI   0
$$

NDZ004>008-012>016-024-026-027-054-171900-
NORTHEAST NORTH DAKOTA

CITY           SKY/WX    TMP DP  RH WIND       PRES   REMARKS
GRAND FORKS    FAIR      21   8  57 W18       29.91R WCI   6
GRND FRKS AFB  FAIR      19   4  51 NW17      29.91R WCI   4
DEVILS LAKE    FAIR      14   6  70 W16       29.93R WCI  -2
$$

NDZ022-023-025-028>030-036>039-047>053-171900-
SOUTHEAST NORTH DAKOTA

CITY           SKY/WX    TMP DP  RH WIND       PRES   REMARKS
FARGO          FAIR      23  15  71 NW20      29.95R WCI   8
6HR MIN TEMP:  13; 6HR MAX TEMP:  23;

JAMESTOWN      SUNNY     22  10  60 NW18      29.94R WCI   7
$$




USA.gov is the U.S. government's official web portal to all federal, state and local government web resources and services.